Location: Unspecified
(58.9933°N, 5.6375°E)
Time: 19:13:08
(UTC+01:00)

Cosmos 1674 - Visible Passes

Search period start: 30 October 2014 00:00
Search period end: 09 November 2014 00:00
Orbit: 514 x 540 km, 82.5° (Epoch: 29 October)

Date Brightness Start Highest point End Pass type
(mag) Time Alt. Az. Time Alt. Az. Time Alt. Az.
30 Oct 4.5 04:33:01 10° SSE 04:36:35 33° E 04:40:10 10° NNE visible
30 Oct 3.3 06:08:47 10° SW 06:12:31 38° WNW 06:16:16 10° N visible
30 Oct 6.2 17:33:50 10° WNW 17:34:47 11° WNW 17:35:43 10° W visible
31 Oct 4.6 04:23:03 19° SE 04:25:08 31° E 04:28:39 10° NNE visible
31 Oct 3.2 05:58:23 18° SW 06:01:01 40° WNW 06:04:48 10° N visible
01 Nov 4.7 04:12:47 26° ESE 04:13:41 29° E 04:17:07 10° NNE visible
01 Nov 3.1 05:48:05 30° WSW 05:49:31 43° WNW 05:53:20 10° N visible
02 Nov 4.8 04:02:16 27° E 04:02:16 27° E 04:05:34 10° NNE visible
02 Nov 3.0 05:37:34 44° W 05:37:59 46° WNW 05:41:51 10° N visible
03 Nov 5.1 03:51:35 23° ENE 03:51:35 23° ENE 03:54:00 10° NNE visible
03 Nov 3.1 05:26:52 47° NW 05:26:52 47° NW 05:30:20 10° N visible
03 Nov 4.8 07:02:18 10° WNW 07:03:25 11° NW 07:04:31 10° NNW visible
04 Nov 5.4 03:40:46 19° NE 03:40:46 19° NE 03:42:24 10° NE visible
04 Nov 3.5 05:16:03 39° NNW 05:16:03 39° NNW 05:18:49 10° N visible
04 Nov 4.7 06:51:19 11° WNW 06:51:49 12° NW 06:53:14 10° NNW visible
05 Nov 5.7 03:29:51 15° NE 03:29:51 15° NE 03:30:48 10° NE visible
05 Nov 4.1 05:05:07 30° N 05:05:07 30° N 05:07:17 10° N visible
05 Nov 4.8 06:40:24 12° NW 06:40:24 12° NW 06:41:52 10° NNW visible
06 Nov 6.0 03:18:51 12° NE 03:18:51 12° NE 03:19:10 10° NE visible
06 Nov 4.6 04:54:07 23° N 04:54:07 23° N 04:55:44 10° N visible
06 Nov 4.8 06:29:23 12° NW 06:29:23 12° NW 06:30:27 10° NNW visible
07 Nov 5.0 04:43:02 18° N 04:43:02 18° N 04:44:10 10° N visible
07 Nov 4.9 06:18:18 12° NNW 06:18:18 12° NNW 06:19:01 10° NNW visible
08 Nov 5.3 04:31:54 15° N 04:31:54 15° N 04:32:36 10° N visible
08 Nov 5.1 06:07:09 11° NNW 06:07:09 11° NNW 06:07:32 10° NNW visible
